Presure
119 126 113 113 115 59 113 117 125 98 117 97 119 111 122 132 128 133 100 130 130 124 88 129 129 119 127 119 104 123 120 130 103 146 135 148 145 143 145 165 151 162 167 189
100 105 93 119 94 104 108 102 118 113 110 106 118 129 138 107 127 113 144 135 133 139 89 132 122 111 128 117 117 124 119 124 135 146 138 142 136 145 150 159 146 171 169 154
106 126 119 106 102 103 106 130 103 138 126 126 117 108 108 105 145 141 134 113 104 113 121 124 110 116 116 119 128 128 118 132 141 142 133 138 136 149 152 145 150 149 154 168
121 116 124 129 125 128 126 125 136 130 115 132 127 115 113 129 136 149 97 94 117 83 139 109 108 124 130 110 120 126 132 136 136 137 140 134 137 85 155 158 165 168 168 155
122 126 119 118 124 129 128 126 134 133 135 124 134 123 125 134 133 74 128 126 63 118 121 122 117 122 133 107 118 131 126 145 133 141 141 140 154 146 153 161 162 162 173 167
118 115 124 103 109 102 117 121 116 129 135 137 156 125 115 106 123 110 129 77 115 129 126 120 118 123 129 106 126 122 140 135 128 146 135 146 143 154 148 137 152 158 172 179
134 128 117 124 123 118 120 103 131 127 131 125 134 134 101 72 124 122 73 123 133 131 128 100 109 106 104 119 123 128 142 128 131 142 144 152 143 125 136 93 151 176 178 174
138 132 127 133 130 134 129 133 134 121 114 117 122 120 82 123 117 118 128 129 137 128 134 139 123 108 139 124 128 140 129 144 133 142 149 100 152 155 121 158 151 166 187 185
75 68 145 128 72 129 139 125 137 134 131 135 131 133 137 123 125 123 124 117 97 119 134 116 145 104 124 129 150 140 144 132 141 150 144 148 153 160 151 164 162 166 185 174
135 143 130 137 142 125 145 111 109 132 122 122 131 134 127 111 117 119 122 123 133 133 142 112 110 118 133 150 135 154 135 161 161 141 150 148 159 162 146 164 161 164 188 168
165 104 137 117 124 124 120 125 131 139 135 102 130 121 110 118 115 121 132 140 139 132 109 107 127 145 141 149 149 131 162 156 147 155 151 154 163 157 174 172 163 189 188 164
169 171 114 120 121 160 159 126 133 131 139 122 128 137 123 124 136 84 80 115 123 90 130 140 143 162 151 136 143 159 163 72 156 162 164 167 177 130 187 182 159 199 214 175
169 169 173 172 171 131 155 150 155 152 131 161 126 95 70 69 96 131 118 104 123 150 150 149 138 140 133 153 162 165 146 158 160 160 165 165 172 188 179 175 188 171 140 161
166 166 178 176 168 140 144 154 143 157 161 159 162 96 70 121 138 152 112 150 164 153 149 131 140 153 160 164 151 151 162 157 159 168 164 154 166 201 162 171 185 135 170 215
177 166 150 166 167 172 165 161 162 161 168 164 145 158 149 127 141 71 143 151 144 149 152 164 158 148 153 151 118 157 165 159 161 166 168 171 186 175 188 185 201 176 181 195
177 167 172 175 170 171 178 174 172 164 163 169 165 171 148 82 166 144 170 168 164 165 150 149 164 169 158 160 161 165 170 160 168 168 173 175 221 141 202 179 179 212 209 199
189 149 133 165 168 174 181 180 175 175 173 177 166 168 114 94 145 145 147 149 156 162 163 166 167 176 171 170 171 170 168 171 173 168 171 146 175 203 162 196 186 214 209 166
189 187 184 178 178 148 166 88 180 179 176 172 177 175 108 174 111 178 171 174 175 176 178 176 161 171 175 175 163 181 176 183 170 173 173 184 197 188 180 207 212 199 168 208
189 193 194 190 187 184 168 174 176 168 181 175 171 166 164 162 174 165 164 173 170 167 172 174 176 164 166 174 171 177 182 130 191 190 181 191 200 196 187 233 188 198 190 185
210 200 197 198 193 192 185 176 185 190 194 87 138 179 173 184 186 175 179 182 178 175 169 164 169 169 178 174 177 180 180 183 192 188 205 203 207 192 188 218 215 218 192 223
221 221 211 205 204 196 181 144 187 190 173 120 73 113 104 161 178 172 164 160 163 169 173 174 180 181 181 178 181 181 186 216 212 210 208 216 207 194 172 225 195 194 163 208
212 213 218 226 217 183 186 192 187 188 172 171 159 177 176 186 191 185 184 185 188 187 186 184 190 195 181 189 206 216 208 198 213 219 200 201 203 194 212 205 196 195 200 177
239 238 214 215 220 79 78 65 64 173 175 188 190 189 187 188 188 189 191 191 193 192 197 192 191 192 204 207 211 207 223 201 206 204 212 208 209 220 204 197 195 181 205 193
232 236 236 237 219 214 211 214 216 210 203 199 197 194 192 194 196 197 197 194 197 200 209 210 212 220 246 225 220 215 205 198 208 207 206 212 197 200 218 201 195 215 218 209
220 228 235 237 229 228 226 223 215 221 221 215 213 207 206 208 212 213 212 219 220 220 227 232 228 238 230 220 212 225 207 206 219 213 212 200 213 209 193 191 220 216 227 226
224 223 229 237 235 235 233 231 226 227 226 223 222 222 219 220 224 229 227 229 225 237 226 216 216 218 203 224 223 225 213 202 200 209 222 211 213 205 213 228 216 224 228 234
Wind_Speed
66 65 67 64 52 15 51 51 56 25 45 48 54 60 47 56 44 45 38 43 49 50 35 50 56 60 62 65 65 71 72 72 50 76 74 74 76 76 78 75 77 75 71 58
49 59 18 60 38 48 50 43 59 45 41 49 53 71 62 43 50 49 47 45 48 54 24 55 57 61 64 67 69 73 75 76 79 81 78 77 77 79 78 79 79 75 71 61
52 79 64 55 52 55 53 65 46 66 50 55 53 64 61 47 66 53 42 45 32 45 52 54 57 61 64 69 66 75 75 78 79 82 81 81 81 80 79 79 81 71 80 73
69 71 69 69 68 69 66 67 64 61 50 61 61 64 72 65 66 63 40 25 45 25 56 53 57 64 66 67 75 77 78 79 81 84 83 84 85 31 81 82 83 81 77 80
74 77 69 60 74 62 67 68 65 69 71 60 61 58 85 70 73 14 44 42 12 50 53 58 61 65 72 70 77 77 82 79 82 84 86 85 83 86 87 85 82 82 78 78
70 72 68 57 69 57 65 71 64 71 71 62 59 51 78 44 72 49 53 20 38 47 49 57 52 66 68 74 77 81 78 82 84 83 86 87 86 89 88 68 83 83 75 67
91 85 74 83 80 76 73 44 82 71 61 57 59 58 48 17 74 68 21 52 52 47 50 50 61 54 69 73 75 79 77 82 84 83 86 85 86 63 74 40 89 79 74 72
86 80 86 90 87 87 82 79 77 55 43 53 56 64 32 82 79 70 74 71 63 53 60 62 59 67 70 72 74 75 80 80 83 85 84 51 88 90 61 87 92 89 83 78
29 22 100 88 26 89 94 71 84 73 68 68 65 75 78 86 87 81 71 60 26 54 69 61 74 68 70 72 73 77 78 77 83 81 87 89 88 90 91 92 92 90 81 81
90 99 90 94 102 79 92 46 38 71 57 51 71 70 74 78 79 78 71 66 73 73 81 47 67 71 77 81 81 81 85 84 85 84 89 91 93 92 92 94 93 92 81 83
111 67 98 81 84 76 63 73 80 86 75 56 71 60 71 86 81 78 83 81 77 76 63 53 79 84 83 86 84 85 88 87 86 89 89 92 94 95 97 94 94 91 81 95
118 123 68 84 73 116 115 71 81 74 86 43 54 77 91 89 95 8 8 68 71 36 78 89 90 93 89 81 88 92 92 27 93 92 94 97 97 95 95 91 99 88 79 79
128 122 123 124 120 82 104 103 106 99 47 102 38 60 11 11 23 84 71 47 74 93 93 94 82 91 87 96 96 98 92 98 94 97 97 97 97 99 98 92 97 87 85 101
133 125 130 125 112 102 93 109 88 108 107 96 98 48 18 88 105 99 54 97 100 95 90 84 93 100 99 100 94 96 100 97 99 102 99 94 101 99 93 97 99 88 98 78
141 124 102 114 119 124 114 115 115 110 111 105 86 93 98 89 107 18 100 101 92 95 96 100 99 90 94 93 72 100 102 101 103 107 108 109 111 105 107 103 92 91 91 85
140 129 132 129 127 123 125 122 122 113 109 113 103 103 107 12 108 92 113 106 104 104 95 94 105 105 99 101 103 106 107 104 112 111 114 112 92 100 109 94 97 89 85 84
141 97 81 125 127 134 134 122 121 122 116 116 105 105 80 41 99 102 101 104 106 107 107 107 106 110 107 108 110 108 108 114 115 113 116 94 109 115 96 102 101 93 93 111
141 141 143 138 142 97 110 45 125 122 119 118 119 117 63 116 59 115 116 116 116 113 114 112 105 110 113 114 106 115 117 119 116 118 119 120 114 111 108 114 96 94 93 96
140 142 145 143 141 140 119 125 125 116 125 119 121 117 119 118 116 101 113 121 113 111 114 114 116 108 109 115 116 117 118 98 121 120 121 118 115 109 106 108 103 98 101 100
142 142 145 145 145 142 128 131 132 135 129 14 70 124 116 127 120 118 121 120 120 119 113 109 115 114 120 117 119 121 122 122 121 120 118 115 110 106 104 107 101 105 101 111
136 140 143 142 145 141 129 95 134 137 118 73 23 60 56 102 118 113 109 106 108 116 120 122 125 126 125 124 127 127 128 113 111 112 114 112 111 108 94 107 107 107 104 107
132 133 135 138 143 121 133 135 134 134 127 124 113 129 127 130 130 127 126 125 126 127 127 127 129 129 125 128 124 115 118 119 115 114 104 107 105 103 103 100 106 103 107 115
125 128 133 136 134 19 26 20 22 123 124 136 136 135 133 133 132 131 131 128 129 130 130 128 129 129 127 124 119 118 109 106 106 107 110 106 105 111 103 106 108 119 116 116
115 121 128 131 126 128 131 130 132 134 135 136 135 134 135 134 135 132 130 128 129 130 130 129 125 120 103 113 113 110 106 104 112 110 113 117 107 108 120 109 118 125 123 118
115 118 121 122 124 124 126 128 128 127 128 130 132 133 132 131 132 131 129 129 128 126 121 116 117 105 109 109 108 111 109 109 114 111 114 109 119 116 120 123 128 123 134 142
111 113 116 118 121 119 121 121 122 122 125 126 126 127 126 125 125 123 122 121 120 115 114 112 109 107 104 111 114 115 111 103 108 114 122 112 120 121 121 134 124 136 145 150
Wind_Direction
248 251 255 254 261 258 269 273 274 272 275 284 284 285 283 287 288 295 290 298 299 305 310 311 310 308 315 311 316 317 318 325 338 329 328 334 336 339 340 339 335 335 335 326
248 249 228 257 261 264 265 263 268 271 277 281 282 283 284 285 288 288 298 298 300 304 312 312 308 307 316 310 312 316 316 320 324 328 328 332 331 337 336 336 332 334 334 330
249 249 256 259 257 259 262 263 267 271 275 275 279 283 285 283 286 289 292 294 297 302 304 306 303 305 308 309 321 315 314 320 324 325 325 328 329 332 332 330 329 332 328 329
245 251 254 255 256 257 262 265 268 275 270 272 274 282 284 285 285 287 286 284 293 313 304 300 302 306 309 309 309 314 317 320 322 322 324 324 325 323 329 329 329 329 328 325
243 248 252 259 259 263 264 266 267 267 268 269 275 283 285 278 285 306 283 284 277 293 300 300 303 305 307 312 309 314 314 319 318 320 321 322 325 324 326 328 328 326 326 323
244 249 251 249 252 254 256 261 261 261 264 270 264 277 282 271 286 288 281 287 286 290 297 296 305 300 305 309 310 310 315 315 314 318 316 321 320 323 323 328 322 321 323 318
245 246 244 249 250 251 253 254 256 258 266 272 273 276 265 281 285 287 258 290 292 293 288 300 298 310 302 302 304 306 311 307 310 313 315 318 316 322 322 327 321 320 317 316
244 246 249 249 250 252 252 256 262 264 263 265 271 273 289 278 279 282 287 290 292 291 292 294 294 291 299 297 300 307 303 309 308 312 316 318 317 319 320 318 318 319 315 313
215 211 244 245 222 249 251 251 256 260 265 265 266 267 269 275 279 281 282 287 277 291 295 289 297 297 293 297 306 304 305 304 306 312 312 313 316 317 316 316 316 317 313 312
237 243 246 247 249 255 257 256 258 260 257 259 261 266 270 272 275 278 283 288 293 294 293 293 292 292 297 304 299 305 301 309 308 308 311 310 315 314 312 314 314 316 311 311
241 244 243 248 249 251 260 256 255 255 259 252 263 268 271 268 272 277 280 287 287 288 291 295 292 297 299 300 301 299 308 306 306 309 309 310 312 313 316 314 312 314 308 308
240 240 246 244 252 246 248 261 256 263 261 268 261 262 262 268 273 249 293 281 283 312 287 290 293 296 298 295 300 305 305 299 307 310 310 309 312 307 315 310 309 309 300 305
240 240 241 241 243 252 252 255 256 257 263 257 264 261 210 239 263 272 279 281 282 282 285 289 295 293 292 298 301 302 302 304 307 306 307 309 311 312 313 312 314 307 315 300
239 238 240 242 243 245 251 249 260 254 257 262 262 266 274 274 271 273 282 277 278 281 284 286 289 292 295 296 299 300 301 302 304 305 308 306 308 309 306 306 310 313 298 306
239 241 240 243 244 246 247 250 253 255 258 260 260 264 269 268 268 286 275 277 281 283 284 286 286 287 292 296 305 298 302 301 303 306 306 307 307 307 308 308 307 298 303 298
239 242 244 245 247 248 250 250 252 257 259 260 262 264 265 307 271 271 272 275 280 282 283 285 287 289 292 294 295 298 300 301 302 303 304 305 298 302 305 302 303 304 302 299
235 238 238 244 248 249 249 250 254 255 258 262 262 264 262 267 269 273 275 276 278 280 282 284 286 289 292 294 296 298 298 298 300 300 301 302 301 304 305 304 301 300 305 296
234 235 239 242 244 244 248 253 254 257 258 260 262 262 263 268 270 271 274 276 278 280 282 285 288 291 291 293 296 295 297 296 297 299 298 300 302 303 301 304 303 301 300 304
235 238 239 242 244 248 249 253 255 256 256 258 262 263 263 264 267 273 274 275 279 281 283 286 286 288 291 292 293 294 296 293 296 296 297 299 300 300 302 298 295 301 292 302
233 236 239 240 243 246 247 250 253 256 258 236 259 262 265 266 269 270 271 275 278 281 283 285 286 287 288 291 293 294 293 294 294 295 295 297 296 297 295 300 301 300 291 308
234 236 238 241 242 245 247 247 251 253 259 259 256 263 268 267 268 271 272 274 278 279 282 283 285 286 288 290 290 291 292 292 293 294 292 291 296 294 298 297 298 292 302 301
235 237 239 241 242 242 245 247 251 253 256 261 261 264 267 267 269 271 273 275 276 277 279 281 283 285 286 286 287 287 288 291 292 292 293 296 295 297 295 291 287 303 294 297
235 239 240 241 242 224 233 224 229 253 255 257 258 261 264 266 268 271 272 275 276 277 279 281 282 283 283 283 285 288 287 290 294 293 295 294 298 301 291 288 291 294 303 294
237 239 241 243 244 244 245 246 248 250 252 255 258 261 263 265 267 270 272 273 275 276 277 278 279 281 283 284 286 287 287 290 294 295 294 297 294 294 302 295 293 299 304 296
236 239 241 243 244 246 247 248 249 252 254 256 257 259 262 264 266 268 270 272 273 275 277 278 280 280 282 284 285 288 291 291 292 294 292 292 298 293 289 294 303 300 303 300
236 239 242 243 244 246 249 251 252 254 256 258 260 262 264 266 268 269 270 272 273 275 276 277 279 284 281 287 287 287 291 288 286 293 296 294 295 297 298 300 299 301 302 301